Weather History for Quincy, IL

Change the Weather History Date:

Thursday, March 20, 2014

  Actual Average Record
Temperature  
Mean Temperature 46 °F 44 °F  
Max Temperature 64 °F 53 °F 81 °F (2012)
Min Temperature 28 °F 34 °F 3 °F (1906)
Degree Days  
Heating Degree Days 19 22  
Month to date heating degree days 605 507  
Since 1 July heating degree days 5499 4849  
Cooling Degree Days 0 0  
Month to date cooling degree days 0 0  
Year to date cooling degree days 0 0  
Moisture  
Dew Point 29 °F    
Average Humidity 56    
Maximum Humidity 85    
Minimum Humidity 26    
Precipitation  
Precipitation 0.00 in 0.08 in 2.10 in (1945)
Month to date precipitation 0.21 1.53  
Year to date precipitation 2.33 4.93  
Sea Level Pressure  
Sea Level Pressure 30.01 in    
Wind  
Wind Speed 7 mph (South)    
Max Wind Speed 18 mph    
Max Gust Speed 22 mph    
Visibility 10 miles    
Events      
T = Trace of Precipitation, MM = Missing Value Source: NWS Daily Summary

Daily Weather History Graph

Daily Weather History Graph

Search for Another Location

Airport:

Trip Planner

Search our weather history database for the weather conditions in past years. The results will help you decide how hot, cold, wet, or windy it might be!

Date:

Astronomy

Mar. 20, 2014 Rise Set
Actual Time 7:08 AM CDT 7:16 PM CDT
Civil Twilight 6:41 AM CDT 7:43 PM CDT
Nautical Twilight 6:09 AM CDT 8:15 PM CDT
Astronomical Twilight 5:37 AM CDT 8:47 PM CDT
Moon 11:36 PM CDT (3/20) 9:14 AM CDT (3/20)
Length of Visible Light 13h 02m
Length of Day
12h 08m
Waning Gibbous, 84% of the Moon is Illuminated
Mar 20
Waning Gibbous
Mar 23
Last Quarter
Mar 30
New
Apr 7
First Quarter
Apr 15
Full

Hourly Weather History & Observations

Time (CDT) Temp. Windchill Dew Point Humidity Pressure Visibility Wind Dir Wind Speed Gust Speed Precip Events Conditions
12:54 AM 28.9 °F 22.8 °F 23.0 °F 78% 30.10 in 10.0 mi South 5.8 mph - N/A   Clear
1:54 AM 30.0 °F 21.1 °F 25.0 °F 82% 30.10 in 10.0 mi South 10.4 mph - N/A   Clear
2:54 AM 30.0 °F 21.7 °F 25.0 °F 82% 30.09 in 10.0 mi South 9.2 mph - N/A   Partly Cloudy
3:54 AM 30.9 °F 23.5 °F 26.1 °F 82% 30.07 in 10.0 mi South 8.1 mph - N/A   Partly Cloudy
4:54 AM 32.0 °F 24.2 °F 27.0 °F 82% 30.06 in 10.0 mi South 9.2 mph - N/A   Overcast
5:54 AM 32.0 °F 24.8 °F 26.1 °F 79% 30.08 in 10.0 mi SSW 8.1 mph - N/A   Mostly Cloudy
6:54 AM 30.0 °F 24.1 °F 25.0 °F 82% 30.09 in 10.0 mi SSW 5.8 mph - N/A   Scattered Clouds
7:54 AM 34.0 °F 31.0 °F 26.1 °F 73% 30.09 in 10.0 mi WSW 3.5 mph - N/A   Clear
8:54 AM 39.9 °F 34.5 °F 28.0 °F 63% 30.09 in 10.0 mi West 8.1 mph - N/A   Clear
9:54 AM 44.1 °F 39.5 °F 27.0 °F 51% 30.09 in 10.0 mi West 8.1 mph - N/A   Clear
10:54 AM 46.9 °F - 28.0 °F 48% 30.08 in 10.0 mi Calm Calm - N/A   Clear
11:54 AM 50.0 °F - 28.0 °F 43% 30.07 in 10.0 mi South 4.6 mph - N/A   Clear
12:54 PM 53.1 °F - 28.0 °F 38% 30.04 in 10.0 mi SW 4.6 mph - N/A   Clear
1:54 PM 57.0 °F - 28.9 °F 34% 30.00 in 10.0 mi Calm Calm - N/A   Clear
2:54 PM 61.0 °F - 28.9 °F 30% 29.97 in 10.0 mi Variable 4.6 mph - N/A   Clear
3:54 PM 64.0 °F - 28.9 °F 27% 29.94 in 10.0 mi West 10.4 mph - N/A   Clear
4:54 PM 63.0 °F - 28.0 °F 27% 29.91 in 10.0 mi Variable 6.9 mph - N/A   Clear
5:54 PM 62.1 °F - 32.0 °F 32% 29.89 in 10.0 mi ENE 9.2 mph - N/A   Clear
6:54 PM 55.9 °F - 34.0 °F 44% 29.91 in 10.0 mi NE 11.5 mph - N/A   Scattered Clouds
7:54 PM 54.0 °F - 34.0 °F 47% 29.90 in 10.0 mi East 10.4 mph - N/A   Overcast
8:54 PM 52.0 °F - 32.0 °F 47% 29.90 in 10.0 mi East 15.0 mph - N/A   Overcast
9:54 PM 48.9 °F - 32.0 °F 52% 29.90 in 10.0 mi East 8.1 mph - N/A   Overcast
10:54 PM 46.0 °F 42.5 °F 32.0 °F 58% 29.90 in 10.0 mi ESE 6.9 mph - N/A   Partly Cloudy
11:54 PM 45.0 °F 41.8 °F 32.0 °F 60% 29.89 in 10.0 mi East 5.8 mph - N/A   Clear